"Pseudo-MPEC" for P11JSYz

Created 2023 Sep 23 12:22:18 UT using Find_Orb

Click here for an explanation of pseudo-MPECs

 
 Astrometry: 
     P11JSYz* C2023 09 18AR;19)(?oI'V5rs=KPd?t6?\mt0;_^6kSG*6)AstrometryJ+R+;F51
     P11JSYz  C2023 09 18B$3ou^E_WsOvUvKredacted;f70$'clickW)`m2dR?herepGaNZ0F51
     P11JSYz  C2023 09 18IrUcPNl^iQJZ(br_E2RWw*vG+7ue!x7forVaexplanationA_.HCF51

Station data:
(F51) Pan-STARRS 1, Haleakala  (N20.707234 W156.255910)  US/Hawaii.
   Observers J. Bulger, T. Lowe, A. Schultz, M. Willman. Measurers K.
   Chambers, S. Chastel, T. de Boer, L. Denneau, J. Fairlamb, H. Flewelling,
   M. Huber, C.-C. Lin, E. Magnier, Y. Ramanjooloo, R. Wainscoat, R. Weryk.
   1.8-m Ritchey-Chrétien + CCD.

Orbital elements:  P11JSYz
   Perihelion 2023 Dec 4.47361 +/- 68.7 TT = 11:22:00 (JD 2460282.97361)
Epoch 2023 Sep 18.0 TT = JDT 2460205.5   Earth MOID: 0.3665   Ma: 0.0343
M 325.83428383 +/- 29               (J2000 ecliptic)             AutoNEOCP
n   0.44099809 +/- 0.31             Peri.   51.67249 +/- 70
a   1.70940473 +/- 0.801            Node   353.74133 +/- 39
e   0.2381955 +/- 0.276             Incl.   20.05176 +/- 17
P   2.23/816.31d           H 22.35  G  0.15   U 12.0  SR
q 1.30223217 +/- 0.446    Q 2.11657730 +/- 36
From 3 observations 2023 Sept. 18 (30.8 min); mean residual 0".10
Residuals in arcseconds: 
230918 F51  .09-  .04-    230918 F51  .18+  .09+    230918 F51  .09-  .05-    

Ephemerides (geocentric):
Date (UTC) HH   RA             Dec           delta  r     elong  mag " sig PA
---- --------  ------------   ------------  ------ ------ -----  --- --------
2023 09 23 12  22 52 47.163   -05 41 50.23  .41054 1.4004 162.4 21.9  30d  84
2023 09 23 13  22 52 41.083   -05 40 26.85  .41054 1.4003 162.3 21.9  30d  84
2023 09 23 14  22 52 35.006   -05 39 03.45  .41054 1.4002 162.3 21.9  30d  84
2023 09 23 15  22 52 28.934   -05 37 40.03  .41054 1.4001 162.2 21.9  30d  84
2023 09 23 16  22 52 22.865   -05 36 16.59  .41054 1.4000 162.2 21.9  30d  84
2023 09 23 17  22 52 16.799   -05 34 53.13  .41053 1.3999 162.1 21.9  30d  84
2023 09 23 18  22 52 10.738   -05 33 29.65  .41053 1.3998 162.1 21.9  30d  84
2023 09 23 19  22 52 04.680   -05 32 06.15  .41053 1.3997 162.0 21.9  30d  84
2023 09 23 20  22 51 58.625   -05 30 42.63  .41053 1.3995 161.9 21.9  30d  84
2023 09 23 21  22 51 52.575   -05 29 19.09  .41053 1.3994 161.9 21.9  30d  84
2023 09 23 22  22 51 46.528   -05 27 55.53  .41053 1.3993 161.8 21.9  30d  84
2023 09 23 23  22 51 40.485   -05 26 31.95  .41054 1.3992 161.8 21.9  30d  84
2023 09 24 00  22 51 34.446   -05 25 08.36  .41054 1.3991 161.7 21.9  30d  84
2023 09 24 01  22 51 28.411   -05 23 44.74  .41054 1.3990 161.6 21.9  30d  85
2023 09 24 02  22 51 22.380   -05 22 21.11  .41054 1.3989 161.6 21.9  30d  85
2023 09 24 03  22 51 16.352   -05 20 57.46  .41054 1.3988 161.5 21.9  30d  85
2023 09 24 04  22 51 10.329   -05 19 33.78  .41055 1.3987 161.5 21.9  30d  85
2023 09 24 05  22 51 04.309   -05 18 10.10  .41055 1.3986 161.4 21.9  30d  85
2023 09 24 06  22 50 58.293   -05 16 46.39  .41055 1.3985 161.4 21.9  30d  85
2023 09 24 07  22 50 52.282   -05 15 22.67  .41056 1.3984 161.3 21.9  30d  85
2023 09 24 08  22 50 46.274   -05 13 58.93  .41056 1.3983 161.2 21.9  30d  85
2023 09 24 09  22 50 40.270   -05 12 35.17  .41057 1.3982 161.2 21.9  30d  85
2023 09 24 10  22 50 34.270   -05 11 11.39  .41057 1.3981 161.1 21.9  30d  85
2023 09 24 11  22 50 28.274   -05 09 47.60  .41058 1.3980 161.1 21.9  30d  85
2023 09 24 12  22 50 22.283   -05 08 23.79  .41058 1.3979 161.0 21.9  30d  85
2023 09 24 13  22 50 16.295   -05 06 59.97  .41059 1.3978 161.0 21.9  30d  85
2023 09 24 14  22 50 10.311   -05 05 36.13  .41060 1.3977 160.9 21.9  30d  85
2023 09 24 15  22 50 04.332   -05 04 12.27  .41060 1.3976 160.8 21.9  30d  85
2023 09 24 16  22 49 58.356   -05 02 48.40  .41061 1.3975 160.8 21.9  30d  85
2023 09 24 17  22 49 52.385   -05 01 24.51  .41062 1.3974 160.7 21.9  30d  85
2023 09 24 18  22 49 46.418   -05 00 00.61  .41063 1.3973 160.7 21.9  30d  85
2023 09 24 19  22 49 40.455   -04 58 36.69  .41064 1.3972 160.6 21.9  30d  85
2023 09 24 20  22 49 34.496   -04 57 12.76  .41064 1.3971 160.5 21.9  30d  85
2023 09 24 21  22 49 28.542   -04 55 48.81  .41065 1.3970 160.5 21.9  30d  85
2023 09 24 22  22 49 22.592   -04 54 24.85  .41066 1.3969 160.4 21.9  30d  85
2023 09 24 23  22 49 16.646   -04 53 00.87  .41067 1.3968 160.4 21.9  30d  85
2023 09 25 00  22 49 10.704   -04 51 36.88  .41068 1.3967 160.3 21.9  30d  85
2023 09 25 01  22 49 04.766   -04 50 12.87  .41069 1.3966 160.3 21.9  30d  85
2023 09 25 02  22 48 58.833   -04 48 48.85  .41071 1.3965 160.2 21.9  30d  85
2023 09 25 03  22 48 52.904   -04 47 24.82  .41072 1.3964 160.1 21.9  30d  85
2023 09 25 04  22 48 46.980   -04 46 00.78  .41073 1.3963 160.1 21.9  30d  85
2023 09 25 05  22 48 41.059   -04 44 36.72  .41074 1.3962 160.0 21.9  30d  85
2023 09 25 06  22 48 35.144   -04 43 12.65  .41075 1.3961 160.0 21.9  30d  85
2023 09 25 07  22 48 29.232   -04 41 48.56  .41077 1.3960 159.9 21.9  30d  85
2023 09 25 08  22 48 23.325   -04 40 24.46  .41078 1.3958 159.9 21.9  30d  85
2023 09 25 09  22 48 17.423   -04 39 00.35  .41079 1.3957 159.8 21.9  30d  85
2023 09 25 10  22 48 11.524   -04 37 36.23  .41081 1.3956 159.7 22.0  30d  85
2023 09 25 11  22 48 05.631   -04 36 12.10  .41082 1.3955 159.7 22.0  30d  85